TimeCDT,TemperatureF,Dew PointF,Humidity,Sea Level PressureIn,VisibilityMPH,Wind Direction,Wind SpeedMPH,Gust SpeedMPH,PrecipitationIn,Events,Conditions,WindDirDegrees,DateUTC
12:53 AM,66.0,42.1,42,29.79,10.0,North,8.1,-,N/A,,Clear,350,2013-05-15 05:53:00
1:53 AM,64.0,39.9,41,29.81,10.0,ESE,3.5,-,N/A,,Clear,120,2013-05-15 06:53:00
2:53 AM,60.1,41.0,49,29.80,10.0,East,9.2,-,N/A,,Clear,100,2013-05-15 07:53:00
3:53 AM,57.9,41.0,53,29.80,10.0,ESE,6.9,-,N/A,,Clear,120,2013-05-15 08:53:00
4:53 AM,55.9,42.1,60,29.79,10.0,ESE,8.1,-,N/A,,Clear,110,2013-05-15 09:53:00
5:53 AM,59.0,39.9,49,29.79,10.0,ENE,6.9,-,N/A,,Clear,70,2013-05-15 10:53:00
6:53 AM,61.0,37.0,41,29.79,10.0,ESE,9.2,-,N/A,,Clear,110,2013-05-15 11:53:00
7:53 AM,62.1,39.9,44,29.83,10.0,ENE,12.7,-,N/A,,Clear,70,2013-05-15 12:53:00
8:53 AM,66.9,41.0,39,29.86,10.0,ENE,19.6,28.8,N/A,,Clear,60,2013-05-15 13:53:00
9:53 AM,69.1,42.1,38,29.88,10.0,ENE,21.9,26.5,N/A,,Clear,70,2013-05-15 14:53:00
10:53 AM,72.0,39.0,30,29.86,10.0,East,24.2,32.2,N/A,,Clear,80,2013-05-15 15:53:00
11:53 AM,73.9,39.0,28,29.87,10.0,East,18.4,26.5,N/A,,Clear,80,2013-05-15 16:53:00
12:53 PM,77.0,39.9,26,29.86,10.0,ENE,21.9,27.6,N/A,,Clear,70,2013-05-15 17:53:00
1:53 PM,75.0,41.0,29,29.85,10.0,East,17.3,21.9,N/A,,Clear,100,2013-05-15 18:53:00
2:53 PM,79.0,42.1,27,29.82,10.0,East,18.4,23.0,N/A,,Clear,90,2013-05-15 19:53:00
3:53 PM,80.1,42.1,26,29.81,10.0,East,13.8,23.0,N/A,,Clear,100,2013-05-15 20:53:00
4:53 PM,79.0,42.1,27,29.79,10.0,East,15.0,26.5,N/A,,Clear,100,2013-05-15 21:53:00
5:53 PM,80.1,42.1,26,29.78,10.0,East,19.6,24.2,N/A,,Clear,90,2013-05-15 22:53:00
6:53 PM,78.1,42.1,28,29.77,10.0,ESE,15.0,-,N/A,,Clear,110,2013-05-15 23:53:00
7:53 PM,75.0,39.9,28,29.77,10.0,East,18.4,-,N/A,,Clear,80,2013-05-16 00:53:00
8:53 PM,66.9,39.9,37,29.79,10.0,ENE,8.1,-,N/A,,Clear,60,2013-05-16 01:53:00
9:53 PM,63.0,39.9,43,29.81,10.0,ENE,9.2,-,N/A,,Clear,60,2013-05-16 02:53:00
10:53 PM,62.1,39.9,44,29.82,10.0,NE,9.2,-,N/A,,Clear,50,2013-05-16 03:53:00
11:53 PM,55.9,41.0,57,29.83,10.0,East,5.8,-,N/A,,Clear,80,2013-05-16 04:53:00